Tracking 22287 objects as of 27-Jan-2021
HD Live streaming from Space Station
objects crossing your sky now

AALTO 1

Track AALTO 1 now!
10-day predictions
AALTO 1 is classified as:


NORAD ID: 42775
Int'l Code: 2017-036L
Perigee: 497.5 km
Apogee: 514.6 km
Inclination: 97.3 °
Period: 94.6 minutes
Semi major axis: 6877 km
RCS: Unknown
Launch date: June 23, 2017
Source: (FIN)
Launch site: SRIHARIKOTA (SRI)

Uplink (MHz):
Downlink (MHz): 437.220/2402.000
Beacon (MHz): 437.220
Mode: 9600bps FSK CW
Call sign: OH2A1S
Status: Active

aabbcc
Your satellite tracking list
Your tracking list is empty




NASA's NSSDC Master Catalog

Two Line Element Set (TLE):
1 42775U 17036L   21027.37598409  .00001410  00000-0  64080-4 0  9997
2 42775  97.2689  78.4316 0012418 317.2273  42.7996 15.22301153199737
Source of the keplerian elements: AMSAT